When you browse on this site, cookies collect data to enhance your experience and personalize the content and advertising you see.
Visit our Privacy Policy to learn more. By continuing to use the site, you agree to this use of cookies and data.
  • In Österreich
  • Länderverzeichnis
  • Für 7 Tage
  • Wassertemperatur
  • Wetterkarte
  • News
  • Widgets
  • user-avatar
    Anmelden

    Stündliche Wetter Rzeszow

    Heute, 4 April, Samstag

    Zeit Temperatur Niederschläge Wind Luftdruck Luftfeuchtigkeit
    00:00 +4°C° 0 mm 1 m/S 745 mmHg 82%
    01:00 +4°C° 0 mm 1 m/S 746 mmHg 84%
    02:00 +3°C° 0 mm 1 m/S 746 mmHg 85%
    03:00 +3°C° 0 mm 1 m/S 746 mmHg 86%
    04:00 +3°C° 0 mm 1 m/S 747 mmHg 86%
    05:00 +4°C° 0 mm 1 m/S 747 mmHg 82%
    06:00 +5°C° 0 mm 1 m/S 748 mmHg 78%
    07:00 +6°C° 0 mm 1 m/S 749 mmHg 74%
    08:00 +7°C° 0 mm 1 m/S 749 mmHg 65%
    09:00 +8°C° 0 mm 2 m/S 749 mmHg 56%
    10:00 +9°C° 0 mm 2 m/S 749 mmHg 47%
    11:00 +9°C° 0 mm 2 m/S 750 mmHg 46%
    12:00 +10°C° 0 mm 2 m/S 750 mmHg 46%
    13:00 +10°C° 0 mm 2 m/S 750 mmHg 45%
    14:00 +10°C° 0 mm 2 m/S 750 mmHg 46%
    15:00 +10°C° 0 mm 3 m/S 750 mmHg 47%
    16:00 +10°C° 0 mm 3 m/S 750 mmHg 48%
    17:00 +9°C° 0 mm 2 m/S 751 mmHg 52%
    18:00 +7°C° 0 mm 2 m/S 751 mmHg 56%
    19:00 +6°C° 0 mm 2 m/S 752 mmHg 60%
    20:00 +5°C° 0 mm 2 m/S 752 mmHg 61%
    21:00 +5°C° 0 mm 2 m/S 753 mmHg 63%
    22:00 +5°C° 0 mm 1 m/S 753 mmHg 65%
    23:00 +5°C° 0 mm 1 m/S 754 mmHg 67%

    Morgen, 5 April, Sonntag

    Zeit Temperatur Niederschläge Wind Luftdruck Luftfeuchtigkeit
    00:00 +4°C° 0 mm 1 m/S 754 mmHg 69%
    01:00 +4°C° 0 mm 1 m/S 754 mmHg 72%
    02:00 +3°C° 0 mm 1 m/S 755 mmHg 74%
    03:00 +3°C° 0 mm 1 m/S 755 mmHg 76%
    04:00 +3°C° 0 mm 1 m/S 755 mmHg 78%
    05:00 +4°C° 0 mm 1 m/S 755 mmHg 75%
    06:00 +4°C° 0 mm 2 m/S 755 mmHg 71%
    07:00 +5°C° 0 mm 2 m/S 756 mmHg 67%
    08:00 +5°C° 0 mm 3 m/S 756 mmHg 60%
    09:00 +8°C° 0 mm 3 m/S 756 mmHg 54%
    10:00 +10°C° 0 mm 4 m/S 756 mmHg 47%
    11:00 +11°C° 0 mm 4 m/S 756 mmHg 45%
    12:00 +11°C° 0 mm 4 m/S 756 mmHg 43%
    13:00 +12°C° 0 mm 4 m/S 756 mmHg 41%
    14:00 +12°C° 0 mm 5 m/S 755 mmHg 42%
    15:00 +12°C° 0 mm 5 m/S 755 mmHg 42%
    16:00 +12°C° 0 mm 5 m/S 755 mmHg 42%
    17:00 +10°C° 0 mm 4 m/S 755 mmHg 48%
    18:00 +7°C° 0 mm 4 m/S 755 mmHg 53%
    19:00 +7°C° 0 mm 3 m/S 755 mmHg 59%
    20:00 +5°C° 0 mm 3 m/S 755 mmHg 60%
    21:00 +5°C° 0 mm 3 m/S 756 mmHg 61%
    22:00 +4°C° 0 mm 3 m/S 756 mmHg 62%
    23:00 +4°C° 0 mm 3 m/S 756 mmHg 62%

    übermorgen, 6 April, Montag

    Zeit Temperatur Niederschläge Wind Luftdruck Luftfeuchtigkeit
    00:00 +3°C° 0 mm 3 m/S 756 mmHg 63%
    01:00 +3°C° 0 mm 3 m/S 756 mmHg 63%
    02:00 +2°C° 0 mm 3 m/S 756 mmHg 64%
    03:00 +2°C° 0 mm 3 m/S 756 mmHg 65%
    04:00 +2°C° 0 mm 3 m/S 756 mmHg 65%
    05:00 +3°C° 0 mm 3 m/S 756 mmHg 63%
    06:00 +4°C° 0 mm 3 m/S 756 mmHg 61%
    07:00 +5°C° 0 mm 4 m/S 756 mmHg 59%
    08:00 +7°C° 0 mm 4 m/S 756 mmHg 54%
    09:00 +10°C° 0 mm 4 m/S 756 mmHg 49%
    10:00 +12°C° 0 mm 4 m/S 756 mmHg 44%
    11:00 +13°C° 0 mm 4 m/S 756 mmHg 43%
    12:00 +14°C° 0 mm 4 m/S 756 mmHg 41%
    13:00 +15°C° 0 mm 4 m/S 755 mmHg 39%
    14:00 +16°C° 0 mm 3 m/S 755 mmHg 40%
    15:00 +16°C° 0 mm 3 m/S 755 mmHg 41%
    16:00 +16°C° 0 mm 3 m/S 755 mmHg 43%
    17:00 +13°C° 0 mm 3 m/S 755 mmHg 49%
    18:00 +11°C° 0 mm 3 m/S 755 mmHg 56%
    19:00 +9°C° 0 mm 3 m/S 755 mmHg 63%
    20:00 +8°C° 0 mm 2 m/S 755 mmHg 64%
    21:00 +7°C° 0 mm 2 m/S 755 mmHg 66%
    22:00 +7°C° 0 mm 2 m/S 756 mmHg 67%
    23:00 +6°C° 0 mm 2 m/S 756 mmHg 67%

    7 April, Dienstag

    Zeit Temperatur Niederschläge Wind Luftdruck Luftfeuchtigkeit
    00:00 +6°C° 0 mm 2 m/S 756 mmHg 66%
    01:00 +6°C° 0 mm 2 m/S 756 mmHg 66%
    02:00 +5°C° 0 mm 2 m/S 756 mmHg 66%
    03:00 +5°C° 0 mm 2 m/S 756 mmHg 66%
    04:00 +5°C° 0 mm 2 m/S 756 mmHg 66%
    05:00 +6°C° 0 mm 2 m/S 756 mmHg 64%
    06:00 +7°C° 0 mm 2 m/S 756 mmHg 61%
    07:00 +8°C° 0 mm 2 m/S 756 mmHg 59%
    08:00 +9°C° 0 mm 2 m/S 756 mmHg 55%
    09:00 +12°C° 0 mm 2 m/S 756 mmHg 51%
    10:00 +14°C° 0 mm 2 m/S 757 mmHg 47%
    11:00 +15°C° 0 mm 1 m/S 756 mmHg 44%
    12:00 +16°C° 0 mm 1 m/S 756 mmHg 41%
    13:00 +19°C° 0 mm 1 m/S 756 mmHg 38%
    14:00 +19°C° 0 mm 1 m/S 756 mmHg 38%
    15:00 +19°C° 0 mm 1 m/S 755 mmHg 38%
    16:00 +19°C° 0 mm 1 m/S 755 mmHg 38%
    17:00 +16°C° 0 mm 1 m/S 755 mmHg 43%
    18:00 +14°C° 0 mm 1 m/S 755 mmHg 49%
    19:00 +12°C° 0 mm 1 m/S 755 mmHg 54%
    20:00 +11°C° 0 mm 1 m/S 755 mmHg 56%
    21:00 +10°C° 0 mm 1 m/S 755 mmHg 57%
    22:00 +10°C° 0 mm 1 m/S 756 mmHg 59%
    23:00 +9°C° 0 mm 1 m/S 755 mmHg 60%

    8 April, Mittwoch

    Zeit Temperatur Niederschläge Wind Luftdruck Luftfeuchtigkeit
    00:00 +9°C° 0 mm 1 m/S 755 mmHg 61%
    01:00 +7°C° 0 mm 0 m/S 755 mmHg 61%
    02:00 +7°C° 0 mm 0 m/S 755 mmHg 62%
    03:00 +6°C° 0 mm 0 m/S 755 mmHg 64%
    04:00 +6°C° 0 mm 0 m/S 755 mmHg 65%
    05:00 +7°C° 0 mm 0 m/S 755 mmHg 63%
    06:00 +8°C° 0 mm 0 m/S 755 mmHg 61%
    07:00 +9°C° 0 mm 0 m/S 755 mmHg 59%
    08:00 +12°C° 0 mm 1 m/S 755 mmHg 52%
    09:00 +14°C° 0 mm 1 m/S 755 mmHg 45%
    10:00 +16°C° 0 mm 1 m/S 755 mmHg 39%
    11:00 +16°C° 0 mm 2 m/S 754 mmHg 36%
    12:00 +17°C° 0 mm 2 m/S 754 mmHg 34%
    13:00 +18°C° 0 mm 2 m/S 754 mmHg 31%
    14:00 +18°C° 0 mm 2 m/S 753 mmHg 32%
    15:00 +18°C° 0 mm 2 m/S 753 mmHg 33%
    16:00 +18°C° 0 mm 2 m/S 753 mmHg 34%
    17:00 +16°C° 0 mm 1 m/S 753 mmHg 39%
    18:00 +14°C° 0 mm 1 m/S 753 mmHg 43%
    19:00 +12°C° 0 mm 1 m/S 753 mmHg 48%
    20:00 +10°C° 0 mm 0 m/S 753 mmHg 50%
    21:00 +10°C° 0 mm 0 m/S 753 mmHg 52%
    22:00 +9°C° 0 mm 0 m/S 753 mmHg 54%
    23:00 +8°C° 0 mm 0 m/S 753 mmHg 56%

    9 April, Donnerstag

    Zeit Temperatur Niederschläge Wind Luftdruck Luftfeuchtigkeit
    00:00 +8°C° 0 mm 0 m/S 753 mmHg 58%
    01:00 +8°C° 0 mm 0 m/S 752 mmHg 60%
    02:00 +7°C° 0 mm 0 m/S 752 mmHg 61%
    03:00 +7°C° 0 mm 0 m/S 752 mmHg 63%
    04:00 +6°C° 0 mm 0 m/S 752 mmHg 65%
    05:00 +8°C° 0 mm 0 m/S 752 mmHg 63%
    06:00 +9°C° 0 mm 0 m/S 753 mmHg 61%
    07:00 +10°C° 0 mm 0 m/S 753 mmHg 59%
    08:00 +12°C° 0 mm 0 m/S 752 mmHg 54%
    09:00 +15°C° 0 mm 1 m/S 752 mmHg 49%
    10:00 +18°C° 0 mm 1 m/S 752 mmHg 44%
    11:00 +19°C° 0 mm 1 m/S 752 mmHg 41%
    12:00 +20°C° 0 mm 1 m/S 752 mmHg 38%
    13:00 +20°C° 0 mm 1 m/S 752 mmHg 35%
    14:00 +20°C° 0 mm 1 m/S 751 mmHg 35%
    15:00 +20°C° 0 mm 1 m/S 751 mmHg 35%
    16:00 +20°C° 0 mm 1 m/S 750 mmHg 35%
    17:00 +18°C° 0 mm 1 m/S 750 mmHg 39%
    18:00 +14°C° 0 mm 0 m/S 750 mmHg 44%
    19:00 +12°C° 0 mm 0 m/S 750 mmHg 48%
    20:00 +12°C° 0 mm 0 m/S 750 mmHg 50%
    21:00 +11°C° 0 mm 0 m/S 751 mmHg 51%
    22:00 +10°C° 0 mm 0 m/S 751 mmHg 53%
    23:00 +10°C° 0 mm 0 m/S 751 mmHg 55%
    Mehr zeigen